timestamp,wind_dir_avg,wind_spd_avg,wind_spd_max_dir,wind_spd_gust,battery_voltage,lat,long
2021-04-24 00:04:01+00:00,201.0,8.49,200.0,9.77,12.73,47.59359,-54.27349
2021-04-24 00:14:01+00:00,202.0,10.31,201.0,11.18,12.57,47.59359,-54.27349
2021-04-24 00:24:01+00:00,208.0,9.68,213.0,10.58,12.57,47.59359,-54.27349
2021-04-24 00:34:01+00:00,206.0,7.94,207.0,9.29,12.57,47.59359,-54.27349
2021-04-24 00:44:01+00:00,214.0,7.76,215.0,8.69,12.57,47.59359,-54.27349
2021-04-24 00:54:01+00:00,225.0,8.34,220.0,9.35,12.57,47.59359,-54.27349
2021-04-24 01:04:01+00:00,213.0,9.19,214.0,10.91,12.57,47.59359,-54.27349
2021-04-24 01:14:00+00:00,209.0,10.06,213.0,12.19,12.49,47.59359,-54.27349
2021-04-24 01:24:00+00:00,210.0,9.77,213.0,11.14,12.49,47.59359,-54.27349
2021-04-24 01:34:00+00:00,217.0,9.62,218.0,10.96,12.49,47.59359,-54.27349
2021-04-24 01:44:00+00:00,215.0,8.82,215.0,9.87,12.49,47.59359,-54.27349
2021-04-24 01:54:00+00:00,215.0,8.11,212.0,9.2,12.49,47.59359,-54.27349
2021-04-24 02:04:00+00:00,216.0,8.5,218.0,9.99,12.49,47.59359,-54.27349
2021-04-24 02:14:01+00:00,218.0,7.14,218.0,8.53,12.49,47.59359,-54.27349
2021-04-24 02:24:01+00:00,216.0,8.77,216.0,9.84,12.49,47.59359,-54.27349
2021-04-24 02:34:01+00:00,214.0,8.48,216.0,9.69,12.49,47.59359,-54.27349
2021-04-24 02:44:01+00:00,214.0,8.6,215.0,10.24,12.49,47.59359,-54.27349
2021-04-24 02:54:01+00:00,214.0,9.44,217.0,10.36,12.49,47.59359,-54.27349
2021-04-24 03:04:01+00:00,215.0,9.94,224.0,11.4,12.49,47.59359,-54.27349
2021-04-24 03:14:00+00:00,214.0,9.52,216.0,11.09,12.49,47.59359,-54.27349
2021-04-24 03:24:00+00:00,212.0,9.71,211.0,10.67,12.49,47.59359,-54.27349
2021-04-24 03:34:00+00:00,211.0,9.73,208.0,10.74,12.49,47.59359,-54.27349
2021-04-24 03:44:00+00:00,211.0,9.73,209.0,11.56,12.49,47.59359,-54.27349
2021-04-24 03:54:00+00:00,214.0,10.92,212.0,12.51,12.49,47.59359,-54.27349
2021-04-24 04:04:00+00:00,212.0,10.69,211.0,12.13,12.49,47.59359,-54.27349
2021-04-24 04:14:00+00:00,211.0,10.63,212.0,11.79,12.49,47.59359,-54.27349
2021-04-24 04:24:00+00:00,208.0,11.52,206.0,12.84,12.49,47.59359,-54.27349
2021-04-24 04:34:00+00:00,206.0,11.98,217.0,14.18,12.49,47.59359,-54.27349
2021-04-24 04:44:00+00:00,206.0,10.58,207.0,12.45,12.49,47.59359,-54.27349
2021-04-24 04:54:00+00:00,209.0,10.3,211.0,11.62,12.49,47.59359,-54.27349
2021-04-24 05:04:00+00:00,210.0,10.42,207.0,11.95,12.49,47.59359,-54.27349
2021-04-24 05:14:00+00:00,212.0,11.49,212.0,13.48,12.41,47.59359,-54.27349
2021-04-24 05:24:00+00:00,216.0,10.62,217.0,11.86,12.41,47.59359,-54.27349
2021-04-24 05:34:00+00:00,209.0,10.14,202.0,11.85,12.41,47.59359,-54.27349
2021-04-24 05:44:00+00:00,205.0,12.37,208.0,14.02,12.41,47.59359,-54.27349
2021-04-24 05:54:00+00:00,208.0,10.64,209.0,12.26,12.41,47.59359,-54.27349
2021-04-24 06:04:00+00:00,211.0,10.66,211.0,12.6,12.41,47.59359,-54.27349
2021-04-24 06:14:00+00:00,207.0,9.44,207.0,10.62,12.41,47.59359,-54.27349
2021-04-24 06:24:00+00:00,210.0,10.56,213.0,12.01,12.41,47.59359,-54.27349
2021-04-24 06:34:00+00:00,214.0,9.76,214.0,11.97,12.41,47.59359,-54.27349
2021-04-24 06:44:00+00:00,212.0,10.45,212.0,11.6,12.41,47.59359,-54.27349
2021-04-24 06:54:00+00:00,215.0,10.5,216.0,12.0,12.41,47.59359,-54.27349
2021-04-24 07:04:00+00:00,211.0,9.83,214.0,11.69,12.41,47.59359,-54.27349
2021-04-24 07:14:00+00:00,215.0,10.94,207.0,14.06,12.41,47.59359,-54.27349
2021-04-24 07:24:00+00:00,210.0,10.36,211.0,12.32,12.41,47.59359,-54.27349
2021-04-24 07:34:00+00:00,207.0,12.18,206.0,13.95,12.41,47.59359,-54.27349
2021-04-24 07:44:00+00:00,211.0,10.56,208.0,12.77,12.41,47.59359,-54.27349
2021-04-24 07:54:00+00:00,213.0,10.24,214.0,12.24,12.41,47.59359,-54.27349
2021-04-24 08:04:00+00:00,214.0,10.23,212.0,11.43,12.41,47.59359,-54.27349
2021-04-24 08:14:01+00:00,207.0,10.66,210.0,12.53,12.33,47.59359,-54.27349
2021-04-24 08:24:01+00:00,213.0,11.43,213.0,12.85,12.33,47.59359,-54.27349
2021-04-24 08:34:01+00:00,209.0,12.22,202.0,14.44,12.33,47.59359,-54.27349
2021-04-24 08:44:01+00:00,212.0,10.32,213.0,11.98,12.33,47.59359,-54.27349
2021-04-24 08:54:01+00:00,213.0,9.97,216.0,11.1,12.33,47.59359,-54.27349
2021-04-24 09:04:01+00:00,212.0,9.55,210.0,10.79,12.33,47.59359,-54.27349
2021-04-24 09:14:01+00:00,209.0,10.55,210.0,11.94,12.33,47.59359,-54.27349
2021-04-24 09:24:01+00:00,209.0,10.2,206.0,11.59,12.33,47.59359,-54.27349
2021-04-24 09:34:01+00:00,209.0,10.64,207.0,12.51,12.33,47.59359,-54.27349
2021-04-24 09:44:01+00:00,208.0,9.8,206.0,11.77,12.33,47.59359,-54.27349
2021-04-24 09:54:01+00:00,207.0,11.15,206.0,13.21,12.33,47.59359,-54.27349
2021-04-24 10:04:01+00:00,208.0,11.26,211.0,12.08,12.33,47.59359,-54.27349
2021-04-24 10:14:01+00:00,210.0,9.64,211.0,10.97,12.41,47.59359,-54.27349
2021-04-24 10:24:01+00:00,213.0,10.65,211.0,12.01,12.41,47.59359,-54.27349
2021-04-24 10:34:01+00:00,213.0,10.61,210.0,11.87,12.41,47.59359,-54.27349
2021-04-24 10:44:01+00:00,211.0,11.47,215.0,12.51,12.41,47.59359,-54.27349
2021-04-24 10:54:01+00:00,212.0,10.56,214.0,12.37,12.41,47.59359,-54.27349
2021-04-24 11:04:01+00:00,214.0,11.46,213.0,13.83,12.41,47.59359,-54.27349
2021-04-24 11:14:01+00:00,214.0,10.86,212.0,12.31,12.49,47.59359,-54.27349
2021-04-24 11:24:01+00:00,214.0,11.46,216.0,12.81,12.49,47.59359,-54.27349
2021-04-24 11:34:01+00:00,214.0,11.02,209.0,12.68,12.49,47.59359,-54.27349
2021-04-24 11:44:01+00:00,212.0,12.07,212.0,13.53,12.49,47.59359,-54.27349
2021-04-24 11:54:01+00:00,215.0,11.73,213.0,13.48,12.49,47.59359,-54.27349
2021-04-24 12:04:01+00:00,216.0,11.57,218.0,13.59,12.49,47.59359,-54.27349
2021-04-24 12:14:01+00:00,216.0,12.34,215.0,14.67,14.16,47.59359,-54.27349
2021-04-24 12:24:01+00:00,216.0,12.25,217.0,14.58,14.16,47.59359,-54.27349
2021-04-24 12:34:01+00:00,214.0,12.7,218.0,14.23,14.16,47.59359,-54.27349
2021-04-24 12:44:01+00:00,211.0,11.33,213.0,13.09,14.16,47.59359,-54.27349
2021-04-24 12:54:01+00:00,210.0,10.49,213.0,12.06,14.16,47.59359,-54.27349
2021-04-24 13:04:01+00:00,210.0,10.49,210.0,12.28,14.16,47.59359,-54.27349
2021-04-24 13:14:01+00:00,210.0,9.81,211.0,11.31,14.24,47.59359,-54.27349
2021-04-24 13:24:01+00:00,208.0,10.12,211.0,10.92,14.24,47.59359,-54.27349
2021-04-24 13:34:01+00:00,209.0,10.53,210.0,12.2,14.24,47.59359,-54.27349
2021-04-24 13:44:01+00:00,213.0,11.67,211.0,13.52,14.24,47.59359,-54.27349
2021-04-24 13:54:01+00:00,213.0,10.74,210.0,11.97,14.24,47.59359,-54.27349
2021-04-24 14:04:01+00:00,214.0,12.39,214.0,14.13,14.24,47.59359,-54.27349
2021-04-24 14:14:01+00:00,214.0,11.58,212.0,13.53,14.32,47.59359,-54.27349
2021-04-24 14:24:01+00:00,215.0,11.92,218.0,13.75,14.32,47.59359,-54.27349
2021-04-24 14:34:01+00:00,214.0,10.15,217.0,11.41,14.32,47.59359,-54.27349
2021-04-24 14:44:01+00:00,218.0,10.98,222.0,12.44,14.32,47.59359,-54.27349
2021-04-24 14:54:01+00:00,213.0,12.16,217.0,13.42,14.32,47.59359,-54.27349
2021-04-24 15:04:01+00:00,216.0,11.87,221.0,14.63,14.32,47.59359,-54.27349
2021-04-24 15:14:01+00:00,215.0,10.42,213.0,12.32,14.32,47.59359,-54.27349
2021-04-24 15:24:01+00:00,215.0,13.05,216.0,15.55,14.32,47.59359,-54.27349
2021-04-24 15:34:01+00:00,213.0,14.32,213.0,16.0,14.32,47.59359,-54.27349
2021-04-24 15:44:01+00:00,212.0,12.46,210.0,14.92,14.32,47.59359,-54.27349
2021-04-24 15:54:01+00:00,209.0,12.87,210.0,15.19,14.32,47.59359,-54.27349
2021-04-24 16:04:01+00:00,207.0,11.31,205.0,12.97,14.32,47.59359,-54.27349
2021-04-24 16:14:01+00:00,210.0,12.81,209.0,14.25,14.32,47.59359,-54.27349
2021-04-24 16:24:01+00:00,208.0,12.0,212.0,14.01,14.32,47.59359,-54.27349
2021-04-24 16:34:01+00:00,208.0,11.37,209.0,13.98,14.32,47.59359,-54.27349
2021-04-24 16:44:01+00:00,208.0,11.3,212.0,13.04,14.32,47.59359,-54.27349
2021-04-24 16:54:01+00:00,210.0,12.53,212.0,14.86,14.32,47.59359,-54.27349
2021-04-24 17:04:01+00:00,211.0,11.76,212.0,13.7,14.32,47.59359,-54.27349
2021-04-24 17:14:01+00:00,208.0,11.81,212.0,14.5,14.24,47.59359,-54.27349
2021-04-24 17:24:01+00:00,207.0,12.48,206.0,14.62,14.24,47.59359,-54.27349
2021-04-24 17:34:01+00:00,206.0,12.93,205.0,14.76,14.24,47.59359,-54.27349
2021-04-24 17:44:01+00:00,210.0,13.64,212.0,15.66,14.24,47.59359,-54.27349
2021-04-24 17:54:01+00:00,207.0,13.73,207.0,15.62,14.24,47.59359,-54.27349
2021-04-24 18:04:01+00:00,208.0,13.06,207.0,14.9,14.24,47.59359,-54.27349
2021-04-24 18:14:01+00:00,207.0,13.35,210.0,15.35,14.0,47.59359,-54.27349
2021-04-24 18:24:01+00:00,212.0,12.7,205.0,15.74,14.0,47.59359,-54.27349
2021-04-24 18:34:01+00:00,211.0,12.93,215.0,15.14,14.0,47.59359,-54.27349
2021-04-24 18:44:01+00:00,208.0,12.04,205.0,13.76,14.0,47.59359,-54.27349
2021-04-24 18:54:01+00:00,208.0,12.62,202.0,14.84,14.0,47.59359,-54.27349
2021-04-24 19:04:01+00:00,209.0,12.69,210.0,15.47,14.0,47.59359,-54.27349
2021-04-24 19:14:01+00:00,212.0,13.03,213.0,16.4,13.84,47.59359,-54.27349
2021-04-24 19:24:01+00:00,212.0,13.09,210.0,14.53,13.84,47.59359,-54.27349
2021-04-24 19:34:01+00:00,211.0,13.25,212.0,14.6,13.84,47.59359,-54.27349
2021-04-24 19:44:01+00:00,212.0,12.22,211.0,13.9,13.84,47.59359,-54.27349
2021-04-24 19:54:01+00:00,210.0,12.11,207.0,13.94,13.84,47.59359,-54.27349
2021-04-24 20:04:01+00:00,208.0,11.88,210.0,13.62,13.84,47.59359,-54.27349
2021-04-24 20:14:01+00:00,210.0,11.53,207.0,13.55,13.84,47.59359,-54.27349
2021-04-24 20:24:01+00:00,210.0,10.72,213.0,12.67,13.84,47.59359,-54.27349
2021-04-24 20:34:01+00:00,207.0,10.64,206.0,12.11,13.84,47.59359,-54.27349
2021-04-24 20:44:01+00:00,210.0,11.87,211.0,13.49,13.84,47.59359,-54.27349
2021-04-24 20:54:01+00:00,208.0,10.97,211.0,12.35,13.84,47.59359,-54.27349
2021-04-24 21:04:01+00:00,209.0,10.85,212.0,12.16,13.84,47.59359,-54.27349
2021-04-24 21:14:01+00:00,209.0,10.58,207.0,11.93,13.84,47.59359,-54.27349
2021-04-24 21:24:01+00:00,210.0,9.22,202.0,11.09,13.84,47.59359,-54.27349
2021-04-24 21:34:01+00:00,209.0,9.4,209.0,10.88,13.84,47.59359,-54.27349
2021-04-24 21:44:01+00:00,207.0,9.17,205.0,10.21,13.84,47.59359,-54.27349
2021-04-24 21:54:01+00:00,206.0,9.78,209.0,11.79,13.84,47.59359,-54.27349
2021-04-24 22:04:01+00:00,206.0,9.4,210.0,11.09,13.84,47.59359,-54.27349
2021-04-24 22:14:01+00:00,209.0,9.53,207.0,11.08,13.53,47.59359,-54.27349
2021-04-24 22:24:01+00:00,209.0,9.41,208.0,10.7,13.53,47.59359,-54.27349
2021-04-24 22:34:01+00:00,211.0,9.22,206.0,10.58,13.53,47.59359,-54.27349
2021-04-24 22:44:01+00:00,209.0,8.98,207.0,10.0,13.53,47.59359,-54.27349
2021-04-24 22:54:01+00:00,215.0,8.36,219.0,9.55,13.53,47.59359,-54.27349
2021-04-24 23:04:01+00:00,216.0,7.79,214.0,8.61,13.53,47.59359,-54.27349
2021-04-24 23:14:01+00:00,211.0,6.41,207.0,7.34,12.97,47.59359,-54.27349
2021-04-24 23:24:01+00:00,208.0,6.59,204.0,7.53,12.97,47.59359,-54.27349
2021-04-24 23:34:01+00:00,213.0,6.27,215.0,7.17,12.97,47.59359,-54.27349
2021-04-24 23:44:01+00:00,218.0,6.36,216.0,7.14,12.97,47.59359,-54.27349
2021-04-24 23:54:01+00:00,218.0,5.88,218.0,6.68,12.97,47.59359,-54.27349
